Location: Lawrence Hall of Science
(37.8785°N, 122.2415°W)
Time: 07:54:14
(UTC-08:00)

ARGOS - Visible Passes

Search period start: 20 February 2017 00:00
Search period end: 02 March 2017 00:00
Orbit: 820 x 835 km, 98.6° (Epoch: 19 February)

Date Brightness Start Highest point End Pass type
(mag) Time Alt. Az. Time Alt. Az. Time Alt. Az.
27 Feb 5.8 21:17:17 10° N 21:17:17 10° N 21:17:21 10° N visible
28 Feb 5.7 20:58:23 11° N 20:58:23 11° N 20:58:38 10° N visible
01 Mar 5.6 20:39:29 11° N 20:39:29 11° N 20:39:45 10° N visible
